Lawrenceville, IL

4:24 AM CST on February 21, 2017 (GMT -0600)
Lawrenceville-Vincennes International

Weather History for KLWV - December, 2013

Change the Weather History Date:

Monday, December 30, 2013

  Actual Average Record
Temperature  
Mean Temperature 19 °F 32 °F  
Max Temperature 24 °F 39 °F 60 °F (1990)
Min Temperature 14 °F 24 °F -1 °F (2012)
Degree Days  
Heating Degree Days 46 34  
Month to date heating degree days 1011 907  
Since 1 July heating degree days 2035 1765  
Cooling Degree Days 0 0  
Month to date cooling degree days 0 0  
Year to date cooling degree days 1287 1387  
Moisture  
Dew Point 11 °F    
Average Humidity 72    
Maximum Humidity 84    
Minimum Humidity 59    
Precipitation  
Precipitation T in 0.11 in 1.99 in (1990)
Month to date precipitation 4.57 3.29  
Year to date precipitation 55.15 43.78  
Sea Level Pressure  
Sea Level Pressure 30.29 in    
Wind  
Wind Speed 7 mph (WNW)    
Max Wind Speed 17 mph    
Max Gust Speed 19 mph    
Visibility 8 miles    
Events      
T = Trace of Precipitation, MM = Missing Value Source: NWS Daily Summary

Daily Weather History Graph

Daily Weather History Graph

Search for Another Location

Airport or City:

Trip Planner

Search our weather history database for the weather conditions in past years. The results will help you decide how hot, cold, wet, or windy it might be!

Date:

Astronomy

Dec. 30, 2013 Rise Set
Actual Time 7:08 AM CST 4:38 PM CST
Civil Twilight 6:38 AM CST 5:07 PM CST
Nautical Twilight 6:05 AM CST 5:41 PM CST
Astronomical Twilight 5:32 AM CST 6:13 PM CST
Moon 4:58 AM CST (12/30) 3:10 PM CST (12/30)
Length of Visible Light 10h 29m
Length of Day
9h 29m
Waning Crescent, 4% of the Moon is Illuminated
Dec 30
Waning Crescent
Jan 1
New
Jan 7
First Quarter
Jan 15
Full
Jan 23
Last Quarter

Hourly Weather History & Observations

Time (CST) Temp. Windchill Dew Point Humidity Pressure Visibility Wind Dir Wind Speed Gust Speed Precip Events Conditions
12:07 AM 24.1 °F 12.0 °F 18.0 °F 77% 30.21 in 7.0 mi WNW 13.8 mph - N/A   Overcast
12:53 AM 23.0 °F 10.1 °F 18.0 °F 81% 30.22 in 7.0 mi NW 15.0 mph - N/A   Overcast
1:11 AM 23.0 °F 10.1 °F 18.0 °F 81% 30.22 in 7.0 mi WNW 15.0 mph - N/A   Overcast
1:53 AM 21.9 °F 8.2 °F 17.1 °F 82% 30.25 in 7.0 mi NW 16.1 mph - N/A   Overcast
2:25 AM 21.0 °F 10.6 °F 16.0 °F 81% 30.25 in 7.0 mi NW 9.2 mph - N/A   Overcast
2:51 AM 21.2 °F 8.9 °F 15.8 °F 80% 30.25 in 9.0 mi WNW 12.7 mph - N/A   Overcast
2:53 AM 21.0 °F 8.6 °F 15.1 °F 78% 30.27 in 9.0 mi WNW 12.7 mph - N/A   Overcast
3:28 AM 19.9 °F 6.7 °F 12.9 °F 74% 30.27 in 9.0 mi NW 13.8 mph - N/A   Overcast
3:53 AM 19.0 °F 5.0 °F 10.9 °F 71% 30.28 in 8.0 mi NW 15.0 mph - N/A   Overcast
4:53 AM 18.0 °F 5.4 °F 10.0 °F 71% 30.31 in 7.0 mi WNW 11.5 mph - 0.00 in   Overcast
5:53 AM 16.0 °F 2.9 °F 8.1 °F 71% 30.32 in 8.0 mi NW 11.5 mph - 0.00 in   Overcast
6:53 AM 14.0 °F 2.9 °F 8.1 °F 77% 30.33 in 10.0 mi NW 8.1 mph - N/A   Mostly Cloudy
7:03 AM 14.0 °F 2.0 °F 8.1 °F 77% 30.32 in 8.0 mi NW 9.2 mph - N/A   Scattered Clouds
7:11 AM 15.1 °F 3.3 °F 8.1 °F 74% 30.32 in 7.0 mi NW 9.2 mph - N/A   Mostly Cloudy
7:53 AM 14.0 °F 0.5 °F 8.1 °F 77% 30.35 in 4.0 mi NW 11.5 mph - N/A   Haze
8:09 AM 14.0 °F 1.2 °F 8.1 °F 77% 30.33 in 3.0 mi NW 10.4 mph - N/A   Haze
8:41 AM 15.1 °F 4.2 °F 8.1 °F 74% 30.34 in 6.0 mi NW 8.1 mph - N/A   Haze
8:53 AM 15.1 °F 5.2 °F 8.1 °F 74% 30.37 in 7.0 mi NW 6.9 mph - N/A   Clear
9:53 AM 17.1 °F - 8.1 °F 68% 30.38 in 9.0 mi Calm Calm - N/A   Clear
10:53 AM 19.0 °F 12.3 °F 9.0 °F 65% 30.36 in 10.0 mi Variable 4.6 mph - N/A   Clear
11:53 AM 19.9 °F 14.9 °F 9.0 °F 62% 30.33 in 10.0 mi Variable 3.5 mph - N/A   Clear
12:53 PM 21.9 °F - 10.0 °F 60% 30.30 in 10.0 mi Calm Calm - N/A   Clear
1:53 PM 21.9 °F 14.5 °F 10.0 °F 60% 30.28 in 10.0 mi SW 5.8 mph - N/A   Clear
2:53 PM 21.9 °F 17.2 °F 10.0 °F 60% 30.28 in 10.0 mi West 3.5 mph - N/A   Clear
3:53 PM 23.0 °F 17.0 °F 10.0 °F 58% 30.28 in 10.0 mi WNW 4.6 mph - N/A   Mostly Cloudy
4:53 PM 21.9 °F 17.2 °F 10.0 °F 60% 30.28 in 10.0 mi WNW 3.5 mph - N/A   Partly Cloudy
5:53 PM 21.9 °F 15.7 °F 10.0 °F 60% 30.30 in 10.0 mi WNW 4.6 mph - N/A   Overcast
6:53 PM 19.9 °F - 10.9 °F 68% 30.30 in 10.0 mi Calm Calm - N/A   Clear
7:53 PM 21.0 °F 13.4 °F 10.9 °F 65% 30.30 in 9.0 mi SSW 5.8 mph - N/A   Scattered Clouds
8:53 PM 21.9 °F 14.5 °F 12.0 °F 66% 30.30 in 9.0 mi SW 5.8 mph - N/A   Mostly Cloudy
9:53 PM 21.9 °F 11.7 °F 12.9 °F 68% 30.27 in 9.0 mi South 9.2 mph - N/A   Partly Cloudy
10:53 PM 23.0 °F 14.7 °F 12.9 °F 65% 30.27 in 10.0 mi SSW 6.9 mph - N/A   Overcast
11:53 PM 24.1 °F 16.0 °F 14.0 °F 65% 30.27 in 10.0 mi SW 6.9 mph - N/A   Overcast